OIFM

Isfahan International Airport

Airport
ICAO code
OIFM
IATA Code
IFN
Summary
ICAO Region
MID
ICAO Territory
Location

Qahjavarestan, Isfahan Province

Serving
Isfahan
Elevation
5059 ft
Coordinates
32° 44' 50" N , 51° 52' 20" E
KCC
Metar
OIFM 160030Z 26004KT CAVOK 20/03 Q1013 A2992

International airport 15km north east of the city of Isfahan, Iran.

Climatology

Cold semi-arid climate (Köppen climate classification BWk).

Runways

Designator Length Width Surface Rops
08L/26R 4397 45 ASP Yes/Yes
08R/26L 4397 45 ASP Yes/Yes

Airport map

Aerial View

SKYbrary Partners:

Safety knowledge contributed by: